Location: Big Prairie
(40.6673°N, 82.0952°W)
Time: 19:57:50
(UTC+00:00)

Cosmos 2208 Rocket - Pass Details

Date: 03 December 2021
Orbit: 754 x 805 km, 74.0° (Epoch: 17 January)

Event Time Altitude Azimuth Distance (km) Brightness Sun altitude
Rises 23:24:44 0° 182° (S) 3,262 7.5 -15.4°
Reaches altitude 10° 23:27:10 10° 176° (S) 2,345 6.7 -15.9°
Maximum altitude 23:32:17 48° 103° (ESE) 1,028 4.3 -16.8°
Enters shadow 23:35:28 23° 40° (NE) 1,670 5.3 -17.4°
